Regional Weather Roundup
Issued by NWS

Home | Current Version | Previous Version | Text Only | Print | Product List | Glossary Off
Versions: 1 2 3 4 5 6 7 8 9 10 11 12 13 14 15 16 17 18 19 20 21 22 23 24 25 26 27 28 29 30 31 32 33 34 35 36 37 38 39 40 41 42 43 44 45 46 47 48 49 50

000
ASUS44 KMEG 241410
RWRTN
TENNESSEE HOURLY STATE WEATHER ROUNDUP
NATIONAL WEATHER SERVICE MEMPHIS TN
900 AM CDT FRI OCT 24 2014

TNZ002-004-019-021-049-052-054-088>092-241500-
WEST TENNESSEE

CITY           SKY/WX    TMP DP  RH WIND       PRES   REMARKS
MEMPHIS INTL   MOSUNNY   56  48  74 CALM      30.17R
NWS MEMPHIS      N/A     48 N/A N/A MISG        N/A
JACKSON        SUNNY     51  46  83 CALM      30.15S
DYERSBURG      PTSUNNY   52  41  66 CALM      30.17R
UNION CITY     MOSUNNY   46  45  93 CALM      30.14R
PARIS          SUNNY     52  45  76 CALM      30.15R
HUNTINGDON     SUNNY     49  45  86 CALM      30.15S
LEXINGTON      SUNNY     48  45  87 CALM      30.13S
SAVANNAH       PTSUNNY   46  46 100 CALM      30.14F
$$

TNZ008-025-027-028-033-062-065-066-241500-
NORTH MIDDLE TENNESSEE

CITY           SKY/WX    TMP DP  RH WIND       PRES   REMARKS
NASHVILLE      MOSUNNY   54  46  74 CALM      30.14F
CLARKSVILLE    SUNNY     50  46  86 CALM      30.14S
SMYRNA         SUNNY     52  48  86 CALM      30.16S
COOKEVILLE     SUNNY     50  46  87 CALM      30.12S
CROSSVILLE     SUNNY     51  42  71 CALM      30.13R
$$

TNZ061-075-076-078-094-096-097-241500-
SOUTH MIDDLE TENNESSEE

CITY           SKY/WX    TMP DP  RH WIND       PRES   REMARKS
FAYETTEVILLE   SUNNY     50  45  81 NE7       30.13S
TULLAHOMA      SUNNY     50  45  81 CALM      30.14S
WINCHESTER     SUNNY     48  46  93 CALM      30.14R
MCMINNVILLE    SUNNY     50  50 100 CALM      30.14R
COLUMBIA         N/A     50  50 100 CALM      30.12F
SHELBYVILLE    SUNNY     48  46  93 CALM      30.15S
$$

TNZ017-018-042-046-047-241500-
NORTHEAST TENNESSEE

CITY           SKY/WX    TMP DP  RH WIND       PRES   REMARKS
TRI CITIES     PTSUNNY   44  42  93 CALM      30.14S FOG
ELIZABETHTON   SUNNY     45  39  81 E5        30.14F
$$

TNZ012-013-036-069-073-074-241500-
CENTRAL EAST TENNESSEE

CITY           SKY/WX    TMP DP  RH WIND       PRES   REMARKS
KNOXVILLE      MOSUNNY   49  43  80 NE10      30.12R
OAK RIDGE      MOSUNNY   53  46  77 CALM      30.14R
GATLINBURG     SUNNY     43  39  87 CALM      30.13S
MORRISTOWN     SUNNY     46  43  87 E6        30.14S
$$

TNZ083-085-099-241500-
SOUTHEAST TENNESSEE

CITY           SKY/WX    TMP DP  RH WIND       PRES   REMARKS
CHATTANOOGA    PTSUNNY   54  46  74 NE6       30.13R
$$

SKY/WX REPORTED AS FAIR MEANS FEW OR NO CLOUDS BELOW
12 THOUSAND FEET.




USA.gov is the U.S. government's official web portal to all federal, state and local government web resources and services.